My Profile
  1. Member Settings
  2. My Devices
  3. Sign Out
        More Settings
      Elev 6 ft, 57.564 °N 4.037 °W

      Inverness, GB

      Inverness Airport Station50°

      Daily Observations

      DateTemp High/LowDew Pt High/LowHumidityWindMax WindWind GustPressurePrecip.Condition
      3/31/2018 45 °F / 25 °F 36 °F / 23 °F 81 % 20 mph - 29.79 in 0 in
      3/30/2018 45 °F / 36 °F 39 °F / 34 °F 88 % 18 mph - 29.64 in 0 in
      3/29/2018 48 °F / 23 °F 39 °F / 23 °F 86 % 20 mph - 29.55 in 0 in
      3/28/2018 50 °F / 34 °F 37 °F / 30 °F 82 % 14 mph - 29.46 in 0 in
      3/27/2018 48 °F / 36 °F 43 °F / 28 °F 82 % 22 mph - 29.47 in 0 in
      3/26/2018 50 °F / 30 °F 37 °F / 27 °F 77 % 12 mph - 29.87 in 0 in
      3/25/2018 48 °F / 34 °F 41 °F / 32 °F 81 % 16 mph - 29.74 in 0 in
      3/24/2018 50 °F / 34 °F 37 °F / 32 °F 77 % 21 mph - 29.49 in 0 in
      3/23/2018 46 °F / 36 °F 46 °F / 32 °F 89 % 29 mph - 29.13 in 0 in
      3/22/2018 50 °F / 43 °F 46 °F / 36 °F 76 % 25 mph - 29.7 in 0 in
      3/21/2018 54 °F / 32 °F 46 °F / 27 °F 80 % 32 mph - 30.07 in 0 in
      3/20/2018 48 °F / 25 °F 30 °F / 25 °F 72 % 14 mph - 30.4 in 0 in
      3/19/2018 46 °F / 19 °F 30 °F / 19 °F 78 % 9 mph - 30.33 in 0 in
      3/18/2018 41 °F / 28 °F 28 °F / 21 °F 72 % 21 mph - 30.27 in 0 in
      3/17/2018 37 °F / 23 °F 32 °F / 18 °F 67 % 22 mph - 30.18 in 0 in
      3/16/2018 45 °F / 36 °F 34 °F / 30 °F 73 % 35 mph - 29.71 in 0 in
      3/15/2018 45 °F / 41 °F 37 °F / 34 °F 75 % 32 mph - 29.34 in 0 in
      3/14/2018 50 °F / 37 °F 39 °F / 30 °F 72 % 24 mph - 29.43 in 0 in
      3/13/2018 48 °F / 34 °F 41 °F / 34 °F 91 % 8 mph - 29.61 in 0 in
      3/12/2018 45 °F / 36 °F 41 °F / 36 °F 96 % 7 mph - 29.36 in 0 in
      3/11/2018 45 °F / 37 °F 43 °F / 37 °F 98 % 10 mph - 29.28 in 0 in
      3/10/2018 41 °F / 21 °F 41 °F / 21 °F 98 % 16 mph - 29.36 in 0 in
      3/9/2018 46 °F / 25 °F 39 °F / 25 °F 84 % 16 mph - 29.36 in 0 in
      3/8/2018 45 °F / 27 °F 36 °F / 27 °F 80 % 18 mph - 29.17 in 0 in
      3/7/2018 46 °F / 32 °F 41 °F / 28 °F 90 % 12 mph - 29.12 in 0 in
      3/6/2018 37 °F / 36 °F 37 °F / 34 °F 98 % 24 mph - 29.21 in 0 in
      3/5/2018 39 °F / 34 °F 39 °F / 34 °F 100 % 16 mph - 29.23 in 0 in
      3/4/2018 36 °F / 32 °F 34 °F / 28 °F 92 % 15 mph - 29.36 in 0 in
      3/3/2018 37 °F / 32 °F 30 °F / 27 °F 83 % 16 mph - 29.57 in 0 in
      3/2/2018 34 °F / 27 °F 32 °F / 23 °F 83 % 20 mph - 29.8 in 0 in
      3/1/2018 34 °F / 10 °F 27 °F / 10 °F 80 % 23 mph - 30.15 in 0 in

      Charts

      Temperature
      Precipitation
      Wind
      essentialaccessibility.com
      We recognize our responsibility to use data and technology for good. We may use or share your data with our data vendors. Take control of your data.
      Glossary